Tracking 27380 objects as of 6-Jun-2023
HD Live streaming from Space Station
objects crossing your sky now

OPS 4682 DEB

Track OPS 4682 DEB now!
10-day predictions


NORAD ID: 38396
Int'l Code: 1965-027CZ
Perigee: 1,251.7 km
Apogee: 1,308.8 km
Inclination: 90.3 °
Period: 111.0 minutes
Semi major axis: 7651 km
RCS: 0.0099 m2 (small)
Launch date: April 3, 1965
Source: United States (US)
Launch site: AIR FORCE WESTERN TEST RANGE (AFWTR)

Note: This is SATELLITE DEBRIS
Your satellite tracking list
Your tracking list is empty




NASA's NSSDC Master Catalog

Two Line Element Set (TLE):
1 38396U 65027CZ  23156.96773343  .00000628  00000-0  21394-2 0  9995
2 38396  90.2520 346.0619 0037351 126.9739 233.4811 12.97195279988946
Source of the keplerian elements: AFSPC